{"data":{"norad_id":51985,"epoch":"2026-05-25T04:17:24.997056Z","epoch_age_seconds":66385,"freshness":"FRESH","line1":"1 51985U 22025AF  26145.17876154 -.00003695  00000+0 -21405-3 0  9995","line2":"2 51985  53.2127  55.7567 0001555  97.7318 262.3851 15.08857017232608","mean_motion":15.08857017,"eccentricity":0.0001555,"inclination_deg":53.2127,"raan_deg":55.7567,"arg_perigee_deg":97.7318,"mean_anomaly_deg":262.3851,"bstar":-0.00021405,"rev_number":23260,"period_min":95.436478326031,"perigee_km":538.61565297935,"apogee_km":540.76709760407,"semimajor_km":6917.8283752917,"source":"CELESTRAK","updated_at":"2026-05-25T13:38:16.996210Z"}}